Regional Weather Roundup
Issued by NWS

Home | Current Version | Previous Version | Text Only | Print | Product List | Glossary Off
Versions: 1 2 3 4 5 6 7 8 9 10 11 12 13 14 15 16 17 18 19 20 21 22 23 24 25 26 27 28 29 30 31 32 33 34 35 36 37 38 39 40 41 42 43 44 45 46 47 48 49 50

000
ASUS43 KLSX 020207
RWRMO

WEATHER SUMMARY FOR MISSOURI
NATIONAL WEATHER SERVICE SPRINGFIELD MO
900 PM CDT MON SEP 01 2014

NOTE: "FAIR" INDICATES FEW OR NO CLOUDS BELOW 12,000 FEET WITH NO
       SIGNIFICANT WEATHER AND/OR OBSTRUCTIONS TO VISIBILITY.
       CURRENT SKY AND/OR WEATHER CONDITIONS ARE NOT AVAILABLE FOR
       CHILLICOTHE AND FARMINGTON.

MOZ001>031-035>038-043-044-053-054-020300-
...NORTHERN AND WESTERN MISSOURI...

CITY           SKY/WX    TMP DP  RH WIND       PRES   REMARKS
KANSAS CTY INT CLOUDY    73  69  87 CALM      29.86R THUNDER
KANSAS C DTWN  LGT RAIN  77  69  76 NE5       29.85R
LEE`S SUMMIT   CLOUDY    74  68  81 SE6       29.86S
ST JOSEPH      CLEAR     69  67  93 N3        29.86R
CHILLICOTHE      N/A     73  70  90 CALM      29.88R
KIRKSVILLE     PTCLDY    72  68  87 NW3       29.89R

$$
MOZ066>068-077>081-088>096-101>105-020300-
...SOUTHWEST MISSOURI...

CITY           SKY/WX    TMP DP  RH WIND       PRES   REMARKS
SPRINGFIELD    CLOUDY    81  69  67 S14G23    29.85S
JOPLIN         CLOUDY    83  71  67 SW12      29.83R THUNDER

$$
MOZ032>034-039>042-045>050-055>058-069>072-020300-
...CENTRAL MISSOURI...

CITY           SKY/WX    TMP DP  RH WIND       PRES   REMARKS
COLUMBIA       TSTM      71  70  96 VRB7      29.90R
JEFFERSON CITY CLOUDY    73  70  90 NW5       29.87R
ROLLA          CLOUDY    75  68  78 SE8       29.85F
SEDALIA        LGT RAIN  72  70  93 NE3       29.90R
WHITEMAN AFB   CLOUDY    71  70  97 E3        29.88R
OSAGE BEACH    CLOUDY    75  70  83 CALM      29.87R

$$
MOZ051-052-059>065-020300-
...EAST CENTRAL MISSOURI...

CITY           SKY/WX    TMP DP  RH WIND       PRES   REMARKS
ST LOUIS INTL  CLOUDY    77  70  79 NE10      29.88F
SPIRIT OF STL  CLOUDY    75  70  84 NW20G25   29.89R
ST CHARLES     CLOUDY    74  72  93 NE7       29.87S THUNDER FOG

$$
MOZ072>076-082>087-097>100-106>115-020300-
...SOUTH CENTRAL AND SOUTHEAST MISSOURI...

CITY           SKY/WX    TMP DP  RH WIND       PRES   REMARKS
CAPE GIRARDEAU MOCLDY    80  72  76 S7        29.92R
FARMINGTON     MOCLDY    77  70  78 SE6       29.93S
POPLAR BLUFF   CLEAR     79  69  71 S7        29.91R
WEST PLAINS    PTCLDY    79  69  71 S8        29.93R

$$


USA.gov is the U.S. government's official web portal to all federal, state and local government web resources and services.